Preview of NWS' New Version of Forecast
This preview is not operational and should not be used for support decisions.

Regional Weather Roundup (RWR)

Issued by National Weather Service (NWS)

                            
000
ASCA42 TJSJ 191610
RWRPR 
PUERTO RICO/U.S. VIRGIN ISLANDS HOURLY WEATHER ROUNDUP
NATIONAL WEATHER SERVICE SAN JUAN PR
1200 PM AST WED JUN 19 2019

PRZ001>002-007>008-010-191700-
PUERTO RICO
  
CITY           SKY/WX    TMP DP  RH WIND       PRES   REMARKS
SAN JUAN LMM   MOSUNNY   88  77  70 NE18G26   30.08S HX 100           
AGUADILLA      PTSUNNY   84  75  74 E18       30.10S HX  92           
CEIBA          CLOUDY    88  75  66 E14       30.11S HX  97           
$$

VIZ001>002-191700-
U.S. VIRGIN ISLANDS
  
CITY           SKY/WX    TMP DP  RH WIND       PRES   REMARKS
CHARLOTTE AMA  CLOUDY    88  75  66 E13       30.08F HX  97           
CHRISTIANSTED  MOSUNNY   90  73  58 E21       30.09S HX  98           
$$

HOURLY WEATHER ROUNDUP FOR THE NEWS MEDIA
  
CITY           SKY/WX    TMP DP  RH WIND       PRES   REMARKS
ORLANDO        FAIR      86  71  60 SW10      30.01F HX  91           
NEW YORK       CLOUDY    67  67 100 SE7       29.88F                  
NEWARK         CLOUDY    69  65  86 SE6       29.87F                  
CHICAGO        CLOUDY    68  57  68 NE9       29.79R                  
HARTFORD       CLOUDY    68  62  81 SE5       29.88S                  
BOSTON         CLOUDY    67  62  84 E8        29.89                   
DALLAS         PTSUNNY   82  72  71 S9        29.82F                  
PHILADELPHIA   CLOUDY    79  70  74 CALM      29.82F                  
LOS ANGELES    CLOUDY    66  57  72 VRB5      29.99R                  
WASHINGTON DC  CLOUDY    79  69  71 S8        29.82F